Вернуться в каталог

NOAA 16 DEB

АктивенSSO
NORAD 41219·DEBRIS·🇺🇸 United States

Запущен Sep 21, 2000 с Vandenberg Space Force Base

Loading…

Ближайшие Пролёты (ближайшие 24 часа)

TLE

СвежийSource: Space-Track

Эпоха: Sep 14, 2026, 02:45 UTC

1 41219U 00055DY  26257.11508782  .00002037  00000-0  82193-3 0  9999
2 41219  98.6133 310.1688 0006250 235.7172 124.3418 14.29034984556751

Отслеживайте NOAA 16 DEB в реальном времени с AllMySat

Download on the App Store